GW0897 Weather Reports


Display with metric or nautical units.
time (UTC)temp
F
wind
direction
speed
MPH
gust
MPH
rain 1hr
in
rain 24hr
in
rain mn
in
humidity
%
barometer
mb
20260504034540 50 128 1.0 0.0 0.00 0.00 0.00 55 1021.3
20260504033053 50 177 1.0 0.0 0.00 0.00 0.00 54 1021.2
20260504031547 50 125 0.0 0.0 0.00 0.00 0.00 54 1021.1
20260504030029 50 179 1.0 0.0 0.00 0.00 0.00 53 1021.2
20260504024542 50 134 1.0 0.0 0.00 0.00 0.00 53 1021.3
20260504023039 51 155 1.0 0.0 0.00 0.00 0.00 52 1021.3
20260504021544 51 151 0.0 0.0 0.00 0.00 0.00 50 1021.2
20260504020031 51 135 0.0 0.0 0.00 0.00 0.00 48 1021.1
20260504014539 52 135 0.0 0.0 0.00 0.00 0.00 48 1020.8
20260504013042 52 135 0.0 0.0 0.00 0.00 0.00 47 1020.6
20260504011545 53 135 0.0 0.0 0.00 0.00 0.00 45 1020.5
20260504010041 53 134 0.0 0.0 0.00 0.00 0.00 42 1020.3
20260504004537 54 65 0.0 0.0 0.00 0.00 0.00 38 1020.1
20260504003044 55 65 0.0 0.0 0.00 0.00 0.00 36 1019.7
20260504001608 56 65 0.0 0.0 0.00 0.00 0.00 33 1019.4
20260504000040 58 65 0.0 0.0 0.00 0.00 0.00 31 1019.2
20260503234544 59 65 0.0 0.0 0.00 0.00 0.00 29 1019.1
20260503233046 60 65 0.0 0.0 0.00 0.00 0.00 26 1019.0
20260503231602 61 65 0.0 0.0 0.00 0.00 0.00 24 1018.8
20260503230045 62 67 0.0 0.0 0.00 0.00 0.00 22 1018.7
20260503224549 63 13 1.0 0.0 0.00 0.00 0.00 20 1018.9
20260503223057 65 234 1.0 0.0 0.00 0.00 0.00 18 1018.8
20260503221504 66 220 0.0 0.0 0.00 0.00 0.00 18 1018.6
20260503220104 66 337 1.0 0.0 0.00 0.00 0.00 19 1018.7
20260503214549 67 253 1.0 0.0 0.00 0.00 0.00 17 1018.7